Regional Weather Roundup
Issued by NWS

Home | Current Version | Previous Version | Graphics & Text | Print | Product List | Glossary On
Versions: 1 2 3 4 5 6 7 8 9 10 11 12 13 14 15 16 17 18 19 20 21 22 23 24 25 26 27 28 29 30 31 32 33 34 35 36 37 38 39 40 41 42 43 44 45 46 47 48 49 50
000
ASUS45 KBOU 260907
RWRCO

WEATHER ROUNDUP FOR COLORADO
NATIONAL WEATHER SERVICE DENVER/BOULDER CO
300 AM MDT SAT JUL 26 2014

NOTE: "FAIR" INDICATES FEW OR NO CLOUDS BELOW 12000 FEET WITH NO
SIGNIFICANT WEATHER AND/OR OBSTRUCTIONS TO VISIBILITY.

COZ001>005-013-030-031-261000-
...NORTHWEST COLORADO...

CITY           SKY/WX    TMP DP  RH WIND       PRES   REMARKS
CRAIG          MOCLDY    58  50  75 CALM      30.21F
HAYDEN         MOCLDY    61  48  63 E13       30.24F
MEEKER         CLOUDY    61  52  72 NE7       30.23S
MOUNT WERNER   NOT AVBL
STEAMBOAT SPGS MOCLDY    55  49  79 CALM      30.28F
WALDEN         PTCLDY    46  41  81 SE9       30.34F
$$

COZ006>008-011-261000-
...WEST CENTRAL VALLEYS...

CITY           SKY/WX    TMP DP  RH WIND       PRES   REMARKS
GRAND JUNCTION PTCLDY    71  52  50 E6        30.10R
MONTROSE       PTCLDY    68  52  56 SE7       30.21F
EAGLE          PTCLDY    55  48  76 CALM      30.32S
RIFLE          PTCLDY    65  48  54 E5        30.19S
DELTA          PTCLDY    73  51  45 E8        30.16S
NUCLA          PTCLDY    66  46  48 E10       30.23F
$$

COZ017>023-064>068-261000-
...SOUTHWEST COLORADO...

CITY           SKY/WX    TMP DP  RH WIND       PRES   REMARKS
DURANGO        PTCLDY    60  43  53 S5        30.23F
CORTEZ         CLEAR     61  45  55 E3        30.20F
PAGOSA SPRINGS PTCLDY    59  46  61 NE3       30.32F
TELLURIDE      PTCLDY    55  46  71 SE7       30.47F
WOLF CREEK PAS NOT AVBL
$$

COZ009-010-012-014-032>034-037-058>063-261000-
...CENTRAL COLORADO...

CITY           SKY/WX    TMP DP  RH WIND       PRES   REMARKS
ASPEN          CLEAR     53  46  77 SW3       30.37S
BUENA VISTA    CLEAR     55  47  76 N6        30.38S
COPPER MTN     CLEAR     54  37  54 W17       30.69R
BERTHOUD PASS  FAIR      45  32  61 NW16G24   30.71S
COTTONWOOD PAS CLEAR     61  43  51 NW9G16    30.50F
GUNNISON       CLEAR     52  46  82 CALM      30.41S
KREMMLING      PTCLDY    52  48  87 CALM      30.36F
LEADVILLE      CLEAR     45  42  89 CALM      30.51F
MONARCH PASS   CLEAR     50  37  62 NW13      30.77F
SALIDA         CLEAR    N/A N/A N/A CALM      30.42S
SUNLIGHT       CLOUDY    55  43  62 CALM      30.59F
WILKERSON PASS NOT AVBL
$$

COZ069>075-261000-
...SAN LUIS VALLEY/SANGRE DE CRISTO MOUNTAINS...

CITY           SKY/WX    TMP DP  RH WIND       PRES   REMARKS
ALAMOSA        CLEAR     52  48  86 CALM      30.32F
LA VETA PASS   CLEAR     55  41  58 SW6       30.51F
SAGUACHE       CLEAR     55  48  76 NW14      30.36S
$$

COZ035-036-038>040-261000-
...NORTHERN COLORADO FRONT RANGE...

CITY           SKY/WX    TMP DP  RH WIND       PRES   REMARKS
DENVER INTL AP PTCLDY    66  51  58 SW10      30.07F
DMNS CITY PARK   N/A     67  51  56 S6        30.07S
AURORA         PTCLDY    65  52  64 S9        30.10F
FRONT RANGE AP NOT AVBL
ERIE MUNI ARPT CLEAR     64  48  57 CALM      30.05S
BOULDER MUN AP CLEAR     77  43  29 CALM      30.06S
CENTENNIAL     PTCLDY    66  49  54 SW8       30.12S
BROOMFIELD     CLEAR     70  46  43 CALM      30.09S
FORT COLLINS   CLEAR     66  54  63 NE5       30.05F
LONGMONT       CLEAR     62  52  70 CALM      30.06S
$$

COZ041-046-047-076>085-087-088-261000-
...PIKES PEAK/PALMER DIVIDE AND SOUTHERN FOOTHILLS...

CITY           SKY/WX    TMP DP  RH WIND       PRES   REMARKS
COLO. SPRINGS  PTCLDY    62  51  67 N6        30.17F
A. F. ACADEMY  CLEAR     58  48  69 N5        30.19F
ELLICOTT       CLEAR     60  51  72 CALM      30.15F
FALCON         CLEAR     62  48  59 W8        30.22F
FORT CARSON    CLEAR     62  51  66 N7        30.13F
LIMON          CLEAR     57  53  86 NE5       30.10F
MONUMENT HILL  NOT AVBL
TRINIDAD       PTCLDY    65  54  67 W9        30.16F
$$

COZ042>045-048>051-090-091-261000-
...NORTHEAST COLORADO...

CITY           SKY/WX    TMP DP  RH WIND       PRES   REMARKS
GREELEY ARPT   CLEAR     59  52  77 SE3       30.04R
AKRON          CLEAR     67  50  54 W8        30.03R
BURLINGTON     MOCLDY    67  60  78 W7        30.00R
WRAY             N/A     74  59  60 S5        29.96R
STERLING       CLEAR     63  61  94 SW3       29.97S
HOLYOKE        PTCLDY    68  61  77 SW6       29.95F
FORT MORGAN    CLEAR     65  54  68 W6        30.03R
$$

COZ086-089-092>099-261000-
...SOUTHEAST COLORADO...

CITY           SKY/WX    TMP DP  RH WIND       PRES   REMARKS
PUEBLO         CLEAR     66  62  87 W3        30.06F
LA JUNTA       MOCLDY    71  60  68 W9        30.02F
LAMAR          PTCLDY    70  63  78 S3        29.97S
SPRINGFIELD      N/A     70  59  68 W8        30.03F
$$



USA.gov is the U.S. government's official web portal to all federal, state and local government web resources and services.